Weather in Pico Island

Portugal     38°30′57″N   28°18′35″W
temp.,
°C
wind,
m/s
gust,
m/s
humid.,
%
clouds,
%
prec.,
mm/h
press.,
hPa
HPBL,
m
17 april, sat
sat1700:00+16ssw5697100 3.1 1019199
03:00+16ssw469769 0.6 1018166
06:00+17sw569398 1.1 1018178
09:00+16ssw5794100 0.2 1018253
12:00+18sw45794 0.4 1019348
15:00+18wsw45739 0.1 1018368
18:00+18wsw567413 0.2 1018329
21:00+16wsw5681100 0.0 1020232
18 april, sun
sun1800:00+15wsw578785 0.0 1021232
03:00+15w588633 0.0 1020304
06:00+15w698531 0.0 1020397
09:00+15w578310 0.0 1022372
12:00+17w4670100 0.0 1022351
15:00+17wnw466998 0.0 1023369
18:00+17w346994 0.0 1023310
21:00+16w337796 0.0 1024132
19 april, mon
mon1900:00+15sw228172 0.0 102475
03:00+15sw2285100 0.0 102464
06:00+15sw2389100 0.0 102463
09:00+15wsw22866 0.0 1024104
12:00+17s227899 0.0 1024278
15:00+17sw24758 0.0 1023399
18:00+17ssw347744 0.0 1023501
21:00+16sw44845 0.0 1023237
20 april, tue
tue2000:00+15sw4589100 0.0 1023216
03:00+16ssw5792100 0.1 1020252
06:00+16sw579155 0.1 1019278
09:00+16ssw5794100 0.7 1019249
12:00+16ssw3498100 16.6 1018232
15:00+17wsw3695100 2.8 1017211
18:00+17w468997 2.9 1017195
21:00+16wsw3486100 0.0 1018102
21 april, wed
wed2100:00+15sw3389100 0.0 101865
03:00+15ssw449198 0.0 1016107
06:00+15ssw6792100 0.0 1014185
09:00+17ssw5893100 0.4 1013296
12:00+16sw71097100 2.3 1012369
15:00+17sw599495 2.1 1011367
18:00+16w6984100 2.8 1011330
21:00+15nw5789100 0.4 1013490